Location: Tr�vern
(48.0333°N, 4.6000°W)
Time: 08:12:14
(UTC+00:00)

Cosmos 1933 Rocket - Pass Details

Date: 14 July 2020
Orbit: 607 x 629 km, 82.5° (Epoch: 05 August)

Event Time Altitude Azimuth Distance (km) Brightness Sun altitude
Exits shadow 02:00:33 29° 237° (WSW) 1,136 4.4 -17.1°
Maximum altitude 02:02:12 41° 285° (WNW) 893 4.3 -17.0°
Drops below altitude 10° 02:06:20 10° 356° (N) 1,973 7.1 -16.7°
Sets 02:08:40 0° 4° (N) 2,885 8.3 -16.5°
